Regional Weather Roundup
Issued by NWS

Home | Current Version | Previous Version | Text Only | Print | Product List | Glossary On
Versions: 1 2 3 4 5 6 7 8 9 10 11 12 13 14 15 16 17 18 19 20 21 22 23 24 25 26 27 28 29 30 31 32 33 34 35 36 37 38 39 40 41 42 43 44 45 46 47 48 49 50
000
ASUS43 KDTX 261701
RWRMI
MICHIGAN HOURLY REGIONAL WEATHER ROUNDUP
NATIONAL WEATHER SERVICE DETROIT/PONTIAC MI
100 PM EDT SUN APR 26 2015

NOTE: "FAIR" INDICATES FEW OR NO CLOUDS BELOW 12,000 FEET WITH NO
SIGNIFICANT WEATHER AND/OR OBSTRUCTION TO VISIBILITY.

MIZ047>049-052>055-059>063-066>070-074>076-081>083-261800-
SOUTHEAST LOWER MICHIGAN

CITY           SKY/WX    TMP DP  RH WIND       PRES   REMARKS
ADRIAN         SUNNY     54  29  38 N9G22     29.92F
ALMA           SUNNY     54  28  35 N7        29.96S
ANN ARBOR      SUNNY     55  28  35 NE13G20   29.91F
BAD AXE        SUNNY     48  32  52 N14       29.95S
CARO           SUNNY     52  33  49 N5        29.95S
DETROIT CITY   PTSUNNY   53  29  39 N12       29.91S
DETROIT        MOSUNNY   56  28  34 N8        29.92S
FLINT          MOSUNNY   56  29  35 N8G18     29.94S
GROSSE ILE     SUNNY     54  27  35 NE10      29.90F
HILLSDALE      MOSUNNY   52  29  40 NE7G16    29.92F
HOWELL         MOSUNNY   54  26  33 N13G20    29.93S

CITY           SKY/WX    TMP DP  RH WIND       PRES   REMARKS
JACKSON        MOSUNNY   54  28  36 N12       29.93F
LAMBERTVILLE   MOSUNNY   55  28  35 N8G17     29.91S
LANSING        PTSUNNY   52  28  39 N13       29.96S
LAPEER         PTSUNNY   53  30  41 N7G16     29.92S
MASON          MOSUNNY   53  28  37 NE9G16    29.94F
MONROE         SUNNY     55  28  35 CALM      29.90S
MT. CLEMENS    MOSUNNY   53  31  42 N8G20     29.88S
PONTIAC        PTSUNNY   53  27  36 N13       29.91S
PORT HOPE        N/A     44  35  70 N6        29.95S
PORT HURON     SUNNY     50  32  50 N13G18    29.93R
TRI CITIES     SUNNY     52  32  46 NE5       29.97S
MIDLAND        FAIR      55  29  37 NE9       29.95S
TROY           MOSUNNY   55  27  33 N12       29.93S
SAGINAW HB     SUNNY     52  30  43 NE13G18   29.96S
$$
MIZ043>046-050>051-056>058-064>065-071>073-077>080-261800-
SOUTHWEST LOWER MICHIGAN

CITY           SKY/WX    TMP DP  RH WIND       PRES   REMARKS
BATTLE CREEK   PTSUNNY   54  30  40 N12G17    29.96F
BENTON HARBOR  SUNNY     47  30  51 VRB7      30.00F
BIG RAPIDS     MOSUNNY   55  24  31 NE13G18   29.96F
COLDWATER      MOSUNNY   51  29  43 NE7G16    29.95S
FREMONT        FAIR      56  22  27 N9G20     29.98S
HOLLAND        MOSUNNY   59  31  34 N8        29.99S
GRAND RAPIDS   MOSUNNY   54  26  34 N6        29.97F
IONIA          FAIR      53  26  35 CALM      29.96S
KALAMAZOO      MOSUNNY   53  27  36 VRB7      29.97F
LUDINGTON      SUNNY     53  27  36 N13G18    30.03S
MARSHALL       PTSUNNY   54  30  40 N7G16     29.94F
MOUNT PLEASANT SUNNY     56  27  33 N9        29.96S
MUSKEGON       PTSUNNY   55  32  41 W14       29.99F
SOUTH HAVEN    SUNNY     48  32  53 N13       29.99F
$$
MIZ016>042-261800-
NORTHERN LOWER MICHIGAN

CITY           SKY/WX    TMP DP  RH WIND       PRES   REMARKS
BEAVER ISLAND  SUNNY     48  28  46 NW7       30.04R
BELLAIRE       SUNNY     51  27  39 W9        30.00F
CADILLAC       MOSUNNY   51  26  37 N7G25     29.97F
CHARLEVOIX     SUNNY     44  33  64 N8        30.05F
FRANKFORT      SUNNY     50  25  38 N9        30.04S
GAYLORD        PTSUNNY   50  24  36 N8        29.96F
GRAYLING       PTSUNNY   52  24  34 N9G16     29.97S
HARBOR SPRINGS PTSUNNY   40  32  71 SW9       30.00F WCI  34
HOUGHTON LAKE  PTSUNNY   52  24  33 N8G17     29.96S
MANISTEE       SUNNY     48  28  46 NW14      30.04S
OSCODA         PTSUNNY   49  31  48 NE13      29.95S
ROGERS CITY    MOSUNNY   44  32  63 N10       30.01S
TRAVERSE CITY  MOSUNNY   44  32  62 N8        30.01S
$$
MIZ007>008-015-261800-
EASTERN UPPER MICHIGAN

CITY           SKY/WX    TMP DP  RH WIND       PRES   REMARKS
KINROSS        PTSUNNY   45  34  65 N10       30.01S
MACKINAC ISLAN MOSUNNY   47  31  53 N8        30.01S
NEWBERRY       PTSUNNY   43  33  69 N12G20    30.04S
S. S. MARIE    CLOUDY    47  31  53 NW13      30.01S
$$
MIZ004>006-011>014-085-261800-
CENTRAL UPPER MICHIGAN

CITY           SKY/WX    TMP DP  RH WIND       PRES   REMARKS
MANISTIQUE     SUNNY     52  31  45 N16G22    30.04S
ESCANABA       SUNNY     52  27  37 N13G23    30.06S
MENOMINEE      SUNNY     50  27  40 SE12      30.06S
SAWYER-GWINN   MOSUNNY   41  28  60 N12G23    30.10R
$$
MIZ001>003-009>011-084-261800-
WESTERN UPPER MICHIGAN

CITY           SKY/WX    TMP DP  RH WIND       PRES   REMARKS
IRON MOUNTAIN  SUNNY     54  21  27 NE8G17    30.05F
HOUGHTON       MOSUNNY   47  29  49 NE8       30.14R
COPPER HARBOR    N/A     37  31  78 N7        30.16S WCI  32
IRONWOOD       SUNNY     46  27  46 N12       30.13R
$$

ABBREVIATIONS USED IN REMARKS
   TC - TEMPERATURE IN CELSIUS
  WCI - WIND CHILL INDEX
   HX - HEAT INDEX
  VSB - VISIBILITY



USA.gov is the U.S. government's official web portal to all federal, state and local government web resources and services.